Flag for U.S.A. Weather past 2 weeks in Fullerton, California, U.S.A.

Now
73 °F

Clear.


Feels Like: 76 °F
Forecast: 63 / 94 °F
Wind: 3 mph from South

Location: Fullerton Municipal Airport

Current Time: Oct 1, 2014 at 9:02:50 PM

Latest Report: Oct 1, 2014 at 7:53 PM


Visibility: 10 mi

Pressure: 29.81 "Hg

Humidity: 64%

Dew point: 60 °F

Location of FullertonLocation

Historic Weather in Fullerton — Graph

°F

Fullerton temperature yesterday

Maximum temperature yesterday: 88 °F (at 1:53 PM)
Minimum temperature yesterday: 61 °F (at 6:53 AM)
Average temperature yesterday: 74 °F

Past Weeks' High & Low Weather Summary

 TemperatureHumidityPressure
High97 °F (Sep 17, 11:53 AM)87% (Sep 22, 3:53 AM)29.99 "Hg (Sep 22, 3:53 AM)
Low61 °F (Sep 30, 6:53 AM)14% (Sep 24, 3:53 PM)29.68 "Hg (Sep 17, 4:53 PM)
Average74 °F61%29.85 "Hg
* Reported Sep 16 7:53 PM — Oct 1 7:53 PM, Fullerton, Weather by CustomWeather, © 2014

Note: Actual official high and low records may vary slightly from our data, if they occured in-between our weather recording intervals... More about our weather records

Advertising

Fullerton weather history for previous 24 hours

 ConditionsComfort  
Time TempWeatherWind HumidityBarometerVisibility
7:53 PM
Oct 1
73 °FClear.3 mph64%29.81 "Hg10 mi
6:53 PM75 °FSunny.5 mph60%29.79 "Hg10 mi
5:53 PM76 °FSunny.7 mph56%29.77 "Hg10 mi
4:53 PM79 °FSunny.8 mph52%29.76 "Hg10 mi
3:53 PM81 °FSunny.9 mph47%29.75 "Hg10 mi
2:53 PM83 °FSunny.9 mph46%29.75 "Hg10 mi
1:53 PM83 °FSunny.6 mph44%29.75 "Hg10 mi
12:53 PM81 °FSunny.6 mph49%29.78 "Hg10 mi
11:53 AM80 °FSunny.3 mph49%29.79 "Hg10 mi
10:53 AM76 °FSunny.5 mph58%29.81 "Hg10 mi
9:53 AM73 °FPassing clouds.5 mph64%29.82 "Hg10 mi
8:53 AM71 °FHaze.No wind71%29.82 "Hg6 mi
7:53 AM67 °FHaze.5 mph79%29.80 "Hg6 mi
6:53 AM67 °FOvercast.3 mph79%29.79 "Hg7 mi
5:53 AM67 °FOvercast.No wind81%29.78 "Hg7 mi
4:53 AM67 °FPassing clouds.3 mph85%29.76 "Hg7 mi
3:53 AM67 °FOvercast.3 mph85%29.75 "Hg7 mi
2:53 AM68 °FPassing clouds.3 mph82%29.76 "Hg6 mi
1:53 AM68 °FPassing clouds.3 mph84%29.75 "Hg7 mi
1:03 AM69 °FPassing clouds.6 mph81%29.77 "Hg7 mi
12:53 AM69 °FPassing clouds.3 mph79%29.76 "Hg7 mi
11:53 PM
Sep 30
69 °FClear.3 mph70%29.76 "Hg8 mi
10:53 PM70 °FClear.No wind66%29.76 "Hg9 mi
9:53 PM71 °FClear.No wind63%29.76 "Hg9 mi
Weather by CustomWeather, © 2014

See weather overviewHow to use our weather pages